Notices

What's New in latest Release from April 7th, 2021:

- Updated Glossary, including Speed of Maximum Gust, and Total Hourly Precipitation

- Updated national and regional climate services offices contacts and prices information

- Addition of station inventory lists for 1981-2010, 1971-2000, and 1961-1990 Normals.

If you haven't already, please take our survey and provide feedback about our website: https://eccc.sondage-survey.ca/f/LanguageSelection.aspx?s=442ca660-fcf1-47c0-95a9-59707d6fd709

Hourly Data Report for April 20, 2004

TORONTO CITY
ONTARIO

43°40'00.000" N
79°24'00.000" W
112.50 m
6158355
71508
XTO

Download Data

Hourly Data (April 2004)
Hourly Data Report for April 20, 2004
TIME
LST
Temp Definition
°C
Dew Point Definition
°C
Rel Hum Definition
%
Precip. Amount Definition
mm

Wind Dir Definition
10's deg

Wind Spd Definition
km/h
Visibility Definition
km
Stn Press Definition
kPa
Hmdx Definition


Wind Chill Definition


Weather Definition


00:00 7.5 3.2 74   LegendMM LegendMM LegendMM 100.60     LegendNANA
01:00 6.8 2.9 76   LegendMM LegendMM LegendMM 100.64     LegendNANA
02:00 6.5 2.8 77   LegendMM LegendMM LegendMM 100.68     LegendNANA
03:00 5.9 2.2 77   LegendMM LegendMM LegendMM 100.71     LegendNANA
04:00 5.2 1.7 78   LegendMM LegendMM LegendMM 100.79     LegendNANA
05:00 4.6 1.3 79   LegendMM LegendMM LegendMM 100.83     LegendNANA
06:00 4.5 1.0 78   LegendMM LegendMM LegendMM 100.89     LegendNANA
07:00 5.2 1.5 77   LegendMM LegendMM LegendMM 100.96     LegendNANA
08:00 5.6 1.7 76   LegendMM LegendMM LegendMM 100.99     LegendNANA
09:00 6.4 1.3 70   LegendMM LegendMM LegendMM 100.94     LegendNANA
10:00 7.9 1.6 64   LegendMM LegendMM LegendMM 100.96     LegendNANA
11:00 7.4 1.6 67   LegendMM LegendMM LegendMM 100.92     LegendNANA
12:00 7.9 1.4 63   LegendMM LegendMM LegendMM 100.84     LegendNANA
13:00 7.2 2.0 69   LegendMM LegendMM LegendMM 100.81     LegendNANA
14:00 7.8 1.5 64   LegendMM LegendMM LegendMM 100.77     LegendNANA
15:00 6.6 1.7 71   LegendMM LegendMM LegendMM 100.74     LegendNANA
16:00 7.5 1.3 65   LegendMM LegendMM LegendMM 100.65     LegendNANA
17:00 8.0 1.5 63   LegendMM LegendMM LegendMM 100.53     LegendNANA
18:00 6.9 1.3 67   LegendMM LegendMM LegendMM 100.45     LegendNANA
19:00 6.1 1.2 71   LegendMM LegendMM LegendMM 100.41     LegendNANA
20:00 4.7 1.2 78   LegendMM LegendMM LegendMM 100.43     LegendNANA
21:00 4.4 0.8 77   LegendMM LegendMM LegendMM 100.37     LegendNANA
22:00 5.0 0.8 74   LegendMM LegendMM LegendMM 100.27     LegendNANA
23:00 5.4 0.1 69   LegendMM LegendMM LegendMM 100.17     LegendNANA

Notes on Data Quality.

Legend

  • E = Estimated
  • M = Missing
  • NA = Not Available*
  • [empty] = Indicates an unobserved value
Date modified: